TimeCDT,TemperatureF,Dew PointF,Humidity,Sea Level PressureIn,VisibilityMPH,Wind Direction,Wind SpeedMPH,Gust SpeedMPH,PrecipitationIn,Events,Conditions,WindDirDegrees,DateUTC
12:15 AM,37.6,31.1,77,30.02,10.0,North,4.6,-,N/A,,Clear,350,2012-11-02 05:15:00
12:35 AM,37.8,31.1,77,30.01,10.0,North,5.8,-,N/A,,Clear,10,2012-11-02 05:35:00
12:55 AM,37.4,30.7,77,30.02,10.0,North,4.6,-,N/A,,Clear,10,2012-11-02 05:55:00
1:15 AM,37.2,30.4,76,30.03,10.0,NNE,4.6,-,N/A,,Clear,20,2012-11-02 06:15:00
1:35 AM,36.7,30.2,77,30.03,10.0,North,3.5,-,N/A,,Clear,10,2012-11-02 06:35:00
1:55 AM,36.3,30.0,78,30.03,10.0,NNE,4.6,-,N/A,,Clear,30,2012-11-02 06:55:00
2:15 AM,36.7,29.8,76,30.03,10.0,NNE,5.8,-,N/A,,Clear,30,2012-11-02 07:15:00
2:35 AM,36.9,29.5,75,30.04,10.0,NNE,4.6,-,N/A,,Clear,30,2012-11-02 07:35:00
2:55 AM,36.7,29.3,75,30.04,10.0,NNE,3.5,-,N/A,,Clear,20,2012-11-02 07:55:00
3:15 AM,35.8,29.8,79,30.04,10.0,NNE,4.6,-,N/A,,Clear,20,2012-11-02 08:15:00
3:35 AM,35.8,29.1,77,30.04,10.0,NNE,3.5,-,N/A,,Clear,30,2012-11-02 08:35:00
3:55 AM,35.4,29.1,78,30.03,10.0,NNE,3.5,-,N/A,,Clear,30,2012-11-02 08:55:00
4:15 AM,35.4,29.3,78,30.03,10.0,ENE,3.5,-,N/A,,Clear,60,2012-11-02 09:15:00
4:35 AM,36.3,29.3,76,30.02,10.0,ENE,4.6,-,N/A,,Clear,60,2012-11-02 09:35:00
4:55 AM,36.7,29.1,74,30.02,10.0,ENE,4.6,-,N/A,,Clear,70,2012-11-02 09:55:00
5:15 AM,36.5,28.8,74,30.02,10.0,ENE,4.6,-,N/A,,Clear,70,2012-11-02 10:15:00
5:35 AM,36.0,28.6,75,30.02,10.0,East,6.9,-,N/A,,Clear,80,2012-11-02 10:35:00
5:55 AM,36.5,28.9,74,30.03,10.0,East,4.6,-,N/A,,Mostly Cloudy,100,2012-11-02 10:55:00
6:15 AM,36.3,28.6,74,30.03,10.0,East,6.9,-,N/A,,Scattered Clouds,90,2012-11-02 11:15:00
6:35 AM,34.9,28.9,79,30.03,10.0,East,5.8,-,N/A,,Clear,100,2012-11-02 11:35:00
6:55 AM,35.1,28.9,78,30.04,10.0,East,6.9,-,N/A,,Clear,90,2012-11-02 11:55:00
7:15 AM,35.8,28.8,76,30.04,10.0,East,8.1,-,N/A,,Clear,90,2012-11-02 12:15:00
7:35 AM,35.4,28.8,77,30.05,10.0,East,5.8,-,N/A,,Clear,100,2012-11-02 12:35:00
7:55 AM,34.7,28.9,79,30.06,7.0,ESE,3.5,-,N/A,,Clear,110,2012-11-02 12:55:00
8:15 AM,34.3,29.3,82,30.06,4.0,East,4.6,-,N/A,,Haze,100,2012-11-02 13:15:00
8:35 AM,35.6,29.8,80,30.06,7.0,East,5.8,-,N/A,,Clear,100,2012-11-02 13:35:00
8:55 AM,36.9,29.8,76,30.05,10.0,ESE,9.2,-,N/A,,Clear,110,2012-11-02 13:55:00
9:15 AM,38.1,30.2,73,30.06,10.0,ESE,9.2,-,N/A,,Clear,110,2012-11-02 14:15:00
9:35 AM,39.0,30.6,72,30.06,10.0,ESE,10.4,-,N/A,,Clear,110,2012-11-02 14:35:00
9:55 AM,39.9,30.7,70,30.06,10.0,East,11.5,-,N/A,,Clear,100,2012-11-02 14:55:00
10:15 AM,40.8,30.9,68,30.06,10.0,East,13.8,-,N/A,,Clear,100,2012-11-02 15:15:00
10:35 AM,41.5,30.6,65,30.06,10.0,ESE,13.8,-,N/A,,Clear,110,2012-11-02 15:35:00
10:55 AM,42.4,30.7,63,30.05,10.0,East,15.0,-,N/A,,Clear,100,2012-11-02 15:55:00
11:15 AM,43.7,30.4,59,30.05,10.0,East,13.8,-,N/A,,Clear,100,2012-11-02 16:15:00
11:35 AM,44.2,30.0,57,30.05,10.0,ESE,16.1,-,N/A,,Clear,120,2012-11-02 16:35:00
11:55 AM,45.7,30.6,56,30.05,10.0,ESE,13.8,-,N/A,,Clear,110,2012-11-02 16:55:00
12:15 PM,46.2,30.2,54,30.05,10.0,ESE,12.7,-,N/A,,Clear,110,2012-11-02 17:15:00
12:35 PM,47.3,30.0,51,30.04,10.0,ESE,15.0,24.2,N/A,,Clear,110,2012-11-02 17:35:00
12:55 PM,48.0,29.8,49,30.03,10.0,ESE,15.0,18.4,N/A,,Clear,120,2012-11-02 17:55:00
1:15 PM,48.6,30.2,49,30.02,10.0,ESE,13.8,-,N/A,,Clear,110,2012-11-02 18:15:00
1:35 PM,48.7,30.2,49,30.02,10.0,East,12.7,18.4,N/A,,Clear,100,2012-11-02 18:35:00
1:55 PM,48.9,29.7,47,30.03,10.0,ESE,9.2,-,N/A,,Clear,110,2012-11-02 18:55:00
2:15 PM,49.8,29.7,46,30.03,10.0,East,10.4,-,N/A,,Clear,90,2012-11-02 19:15:00
2:35 PM,49.1,29.1,46,30.02,10.0,ESE,12.7,17.3,N/A,,Clear,110,2012-11-02 19:35:00
2:55 PM,51.3,29.7,44,30.02,10.0,East,12.7,-,N/A,,Clear,100,2012-11-02 19:55:00
3:15 PM,51.6,29.8,43,30.01,10.0,East,13.8,18.4,N/A,,Clear,80,2012-11-02 20:15:00
3:35 PM,50.4,29.3,44,30.00,10.0,East,15.0,-,N/A,,Clear,100,2012-11-02 20:35:00
3:55 PM,49.8,29.8,46,30.00,10.0,East,13.8,-,N/A,,Clear,100,2012-11-02 20:55:00
4:15 PM,49.5,29.7,47,30.01,10.0,East,13.8,-,N/A,,Clear,100,2012-11-02 21:15:00
4:55 PM,49.1,29.5,47,30.00,10.0,East,13.8,-,N/A,,Clear,90,2012-11-02 21:55:00
5:15 PM,48.6,29.7,48,30.00,10.0,East,16.1,19.6,N/A,,Clear,100,2012-11-02 22:15:00
5:35 PM,48.0,29.8,49,30.00,10.0,East,12.7,-,N/A,,Clear,80,2012-11-02 22:35:00
5:55 PM,47.5,29.7,50,30.01,10.0,East,12.7,-,N/A,,Clear,90,2012-11-02 22:55:00
6:15 PM,47.3,30.0,51,30.01,10.0,East,6.9,-,N/A,,Clear,80,2012-11-02 23:15:00
6:55 PM,45.9,29.8,54,30.03,10.0,East,8.1,-,N/A,,Clear,90,2012-11-02 23:55:00
7:15 PM,45.5,30.6,56,30.04,10.0,ENE,6.9,-,N/A,,Clear,70,2012-11-03 00:15:00
7:35 PM,45.7,30.6,56,30.04,10.0,East,8.1,-,N/A,,Clear,80,2012-11-03 00:35:00
7:55 PM,45.5,30.2,55,30.05,10.0,East,5.8,-,N/A,,Clear,80,2012-11-03 00:55:00
8:15 PM,44.6,30.2,57,30.05,10.0,East,8.1,-,N/A,,Clear,80,2012-11-03 01:15:00
8:35 PM,45.0,30.2,56,30.06,10.0,East,5.8,-,N/A,,Mostly Cloudy,80,2012-11-03 01:35:00
8:55 PM,45.3,30.2,56,30.06,10.0,East,6.9,-,N/A,,Overcast,90,2012-11-03 01:55:00
9:15 PM,45.5,30.4,56,30.07,10.0,ENE,5.8,-,N/A,,Overcast,60,2012-11-03 02:15:00
9:35 PM,45.0,30.4,57,30.08,10.0,ENE,4.6,-,N/A,,Overcast,60,2012-11-03 02:35:00
9:55 PM,44.6,31.1,59,30.09,10.0,NNE,5.8,-,N/A,,Overcast,30,2012-11-03 02:55:00
10:35 PM,44.6,31.6,60,30.08,10.0,ENE,5.8,-,N/A,,Overcast,60,2012-11-03 03:35:00
10:55 PM,44.6,31.8,61,30.08,10.0,ENE,5.8,-,N/A,,Overcast,60,2012-11-03 03:55:00
11:15 PM,45.0,31.8,60,30.09,10.0,ENE,5.8,-,N/A,,Overcast,70,2012-11-03 04:15:00
11:35 PM,45.0,31.8,60,30.09,10.0,ENE,5.8,-,N/A,,Overcast,70,2012-11-03 04:35:00
11:55 PM,44.8,32.0,61,30.09,10.0,East,6.9,-,N/A,,Overcast,80,2012-11-03 04:55:00